Weather in Dukmasov

Russia / Republic of Adygea     45°00′22″N   39°54′50″E
temp.,
°C
wind,
m/s
gust,
m/s
humid.,
%
clouds,
%
prec.,
mm/h
press.,
hPa
HPBL,
m
24 may, tue
tue2400:00+11wsw359698 1.3 1008123
03:00+10wsw3797100 2.8 1009203
06:00+11wsw269590 0.3 1009233
09:00+13wsw468699 0.9 1010449
12:00+13nw128480 0.5 1011223
15:00+15wnw348191 2.4 1012445
18:00+13nnw2392100 2.1 1013112
21:00+10w239672 2.3 101570
25 may, wed
wed2500:00+11ssw2496100 0.2 1016141
03:00+10sw369670 0.9 1017192
06:00+10wsw24965 0.1 1018135
09:00+15w34721 0.3 1019470
12:00+19wnw34505 0.3 10191926
15:00+20w354846 0.3 10192222
18:00+17nnw247019 0.1 1020261
21:00+12sw11776 0.1 102110
26 may, thu
thu2600:00+10sw228289 0.0 102113
03:00+9sw339162 0.0 102231
06:00+10sw2387100 0.0 102288
09:00+16sw22620 0.0 1022475
12:00+20w23475 0.0 10211892
15:00+21nw2348100 0.0 10191798
18:00+20w236466 0.0 1019223
21:00+13wsw3564100 0.0 102075
27 may, fri
fri2700:00+12wsw366273 0.0 1020129
03:00+12sw366689 0.0 1020154
06:00+12sw2469100 0.0 102099
09:00+17wsw3561100 0.0 1020435
12:00+20w455629 0.0 10191061
15:00+21w45563 0.0 10191288
18:00+21w24650 0.0 1018598
21:00+15ssw22790 0.0 101913
28 may, sat
sat2800:00+13s22870 0.0 101811
03:00+12sse22890 0.0 101711
06:00+13ese22860 0.0 101766
09:00+19ese34650 0.0 1015486
12:00+24e22560 0.0 10141112
15:00+26ene12470 0.0 10131745
18:00+25ne22630 0.0 1013135
21:00+18ene33750 0.0 101318